Regional Weather Roundup
Issued by NWS New Orleans/Baton Rouge, LA

Home | Current Version | Previous Version | Text Only | Print | Product List | Glossary Off
Versions: 1 2 3 4 5 6 7 8 9 10 11 12 13 14 15 16 17 18 19 20 21 22 23 24 25 26 27 28 29 30 31 32 33 34 35 36 37 38 39 40 41 42 43 44 45 46 47 48 49 50

116
ASUS44 KLIX 291701
RWRLIX
NEW ORLEANS REGIONAL WEATHER ROUNDUP
NATIONAL WEATHER SERVICE NEW ORLEANS LA
1200 PM CDT FRI AUG 29 2014

NOTE: "FAIR" INDICATES FEW OR NO CLOUDS BELOW 12,000 FEET WITH NO
      SIGNIFICANT WEATHER AND/OR OBSTRUCTIONS TO VISIBILITY.
      SKY/WX - SKY CONDITION AND SIGNIFICANT WEATHER.
      TMP - AIR TEMPERATURE.     DP    - DEWPOINT TEMPERATURE.
      RH  - RELATIVE HUMIDITY.   PRES  - PRESSURE.
      HI  - HEAT INDEX.          WCI   - WIND CHILL INDEX.

*  THESE STATIONS ARE NOT NWS OR FAA STATIONS AND ARE NOT UNDER
   NWS QUALITY CONTROL.

LAZ038-040-048-061>063-065>067-069-291800-
SOUTHEAST LOUISIANA

CITY           SKY/WX    TMP DP  RH WIND       PRES   REMARKS
N.O. AUDUBON   NOT AVBL
N.O. INTL ARPT CLOUDY    86  74  67 SE5       29.97S
N.O. LAKEFRONT CLOUDY    85  75  72 E14       29.99R
N.O. DOWNTOWN* PTSUNNY   88  72  58 SE3       29.99R
SLIDELL        PTSUNNY   88  72  58 E8        29.99R
BATON ROUGE    CLOUDY    87  74  64 SE12      29.97R HX  95
BOOTHVILLE     LGT RAIN  78  74  87 CALM      30.00S
BELLE CHASSE   CLOUDY    85  74  69 SE7       29.99R THUNDER
BOGALUSA*        N/A     90  71  52 SE5       30.01R HX  95
GALLIANO*      NOT AVBL
NEW ROADS*     PTSUNNY   85  74  68 E8        29.97R
GONZALES*        N/A     85  79  81 E3        29.96F HX  98
HAMMOND*       NOT AVBL
HOUMA*         LGT RAIN  73  72  94 S8        30.00R FOG
PORT FOURCHON* CLOUDY    77  73  88 E5        30.03R FOG

$$

MSZ070-080>082-291800-
SOUTHERN MISSISSIPPI

CITY           SKY/WX    TMP DP  RH WIND       PRES   REMARKS
MCCOMB         MOSUNNY   88  67  49 SE10G17   30.00S
GULFPORT       MOSUNNY   89  75  63 E17G24    29.99R HX  99
BILOXI         MOSUNNY   90  74  59 SE9G17    29.99S HX  99
PASCAGOULA     PTSUNNY   90  73  57 SE10      29.99S HX  98
STENNIS ARPT*  MOSUNNY  N/A N/A N/A E12G17    30.00R

$$

COASTAL OBSERVATIONS
LAKE AND NEARSHORE STATIONS

STATION/POSITION TIME  TEMP    WIND        PRES    WAVE
                       AIR SEA DIR/SP/G            HT/PER
                 (UTC) (F)     (DEG/KT/KT) (MB)    (FT/S)
PASCAGOULA       1600   88     100/ 12/ 17 1014.9
WAVELAND YACHT   1600   85     120/ 13/ 16 1014.8
GRAND ISLE       1600   74 84  240/  9/ 19 1016.9
SOUTHWEST PASS   1600   82 89   30/  7/  8 1015.4
NEW CANAL        1600   86 84   CALM  /  5 1015.8
SHELL BEACH      1600   86 81  110/ 16/ 17 1015.1

OFFSHORE STATIONS

STATION/POSITION TIME  TEMP    WIND        PRES    WAVE
                       AIR SEA DIR/SP/G            HT/PER
                 (UTC) (F)     (DEG/KT/KT) (MB)    (FT/S)
64 S DAUPHIN ISL 1700   84     140/ 19     1015.1

$$




USA.gov is the U.S. government's official web portal to all federal, state and local government web resources and services.